Regional Weather Roundup
Issued by NWS

Home | Current Version | Previous Version | Graphics & Text | Print | Product List | Glossary On
Versions: 1 2 3 4 5 6 7 8 9 10 11 12 13 14 15 16 17 18 19 20 21 22 23 24 25 26 27 28 29 30 31 32 33 34 35 36 37 38 39 40 41 42 43 44 45 46 47 48 49 50
000
ASUS43 KTOP 220608
RWRKS

WEATHER ROUNDUP FOR KANSAS
NATIONAL WEATHER SERVICE GOODLAND KS
1200 AM CST MON DEC 22 2014

NOTE:  "FAIR" INDICATES FEW OR NO CLOUDS BELOW 12,000 FEET WITH NO
SIGNIFICANT WEATHER AND/OR OBSTRUCTIONS TO VISIBILITY.

KSZ001>006-013>018-027>032-041>047-220700-
NORTHWEST KANSAS

CITY           SKY/WX    TMP DP  RH WIND       PRES   REMARKS
GOODLAND       MOCLDY    41  35  79 W17       29.57R
6HR MIN TEMP:  38; 6HR MAX TEMP:  45;

HAYS           CLOUDY    43  36  75 S13       29.56S
HILL CITY      CLOUDY    42  37  82 SW10      29.53F
6HR MIN TEMP:  41; 6HR MAX TEMP:  43;

RUSSELL        CLOUDY    44  42  93 S15       29.54F
6HR MIN TEMP:  41; 6HR MAX TEMP:  44;

$$

KSZ061>065-074>080-084>089-220700-
SOUTHWEST KANSAS

CITY           SKY/WX    TMP DP  RH WIND       PRES   REMARKS
DODGE CITY     CLOUDY    43  40  89 S16       29.56F
6HR MIN TEMP:  40; 6HR MAX TEMP:  43;

ELKHART          N/A    N/A N/A N/A MISG        N/A
GARDEN CITY    PTCLDY    31  31 100 W6        29.57R FOG
6HR MIN TEMP:  31; 6HR MAX TEMP:  44;

GREAT BEND     CLOUDY    45  39  81 S16       29.58S
LIBERAL        PTCLDY    34  27  75 CALM      29.57S
PRATT          CLOUDY    43  41  93 S12       29.60S FOG
$$

KSZ066>073-081>083-090>101-220700-
SOUTHEAST KANSAS

CITY           SKY/WX    TMP DP  RH WIND       PRES   REMARKS
CHANUTE        CLOUDY    44  42  93 SE17G24   29.72F
6HR MIN TEMP:  44; 6HR MAX TEMP:  45; 6HR PCP: TRACE;

COFFEYVILLE    LGT RAIN  44  43  96 SE13      29.72F FOG
6HR MIN TEMP:  44; 6HR MAX TEMP:  46; 6HR PCP: TRACE;

HUTCHINSON     CLOUDY    44  42  93 S17       29.62F FOG
6HR MIN TEMP:  44; 6HR MAX TEMP:  45;

MEDICINE LODGE   N/A     44  44 100 S10G18    29.59F
NEWTON         CLOUDY    43  37  81 S16       29.65S
PARSONS        LGT RAIN  44  43  96 SE9       29.73F FOG
6HR MIN TEMP:  44; 6HR MAX TEMP:  46; 6HR PCP: TRACE;

WICHITA INTL   LGT RAIN  45  42  89 S13       29.63F FOG
6HR MIN TEMP:  45; 6HR MAX TEMP:  45; 6HR PCP: TRACE;

WICHITA JABRA  CLOUDY    43  42  97 S14       29.64F FOG
6HR MIN TEMP:  43; 6HR MAX TEMP:  44;

WICHITA MCCONL MIX PCPN  44  43  97 SE16      29.64F FOG
WINFIELD       CLOUDY    44  43  96 SE12      29.67F FOG
6HR MIN TEMP:  44; 6HR MAX TEMP:  45;

$$

KSZ007>012-019>026-033>040-048>060-102>105-220700-
NORTHEAST KANSAS

CITY           SKY/WX    TMP DP  RH WIND       PRES   REMARKS
CONCORDIA      LGT RAIN  43  43 100 S14       29.60F FOG
6HR MIN TEMP:  42; 6HR MAX TEMP:  43; 6HR PCP:  0.01;

EMPORIA        CLOUDY    43  41  93 SE15      29.67F
6HR MIN TEMP:  42; 6HR MAX TEMP:  43;

LAWRENCE       CLOUDY    43  39  86 SE13      29.72F
6HR MIN TEMP:  43; 6HR MAX TEMP:  45;

MANHATTAN      CLOUDY    44  42  93 S13       29.66S FOG
6HR MIN TEMP:  44; 6HR MAX TEMP:  45; 6HR PCP: TRACE;

MARYSVILLE     DRIZZLE   43  43 100 S12G20    29.63F
OLATHE IND     CLOUDY    42  38  85 SE13      29.74F
6HR MIN TEMP:  42; 6HR MAX TEMP:  43; 6HR PCP: TRACE;

OLATHE EXE     CLOUDY    42  38  85 SE12      29.73F
6HR MIN TEMP:  42; 6HR MAX TEMP:  43;

SALINA         CLOUDY    45  43  93 S13       29.62F FOG
6HR MIN TEMP:  45; 6HR MAX TEMP:  45; 6HR PCP:  0.01;

TOPEKA BILLARD CLOUDY    46  41  82 S13       29.71F
6HR MIN TEMP:  46; 6HR MAX TEMP:  47;

TOPEKA FORBES  CLOUDY    45  40  82 S9        29.70F
6HR MIN TEMP:  45; 6HR MAX TEMP:  46;

$$



USA.gov is the U.S. government's official web portal to all federal, state and local government web resources and services.